sat.trackr.live / text

‹ back to catalog

STARLINK-32732

NORAD 62488 · 2025-003B

PAYLOAD ACTIVE UNKNOWN

§ Identity

Operator
Country
US
Launch date
2025-01-06
Launch site
AFETR
Launch vehicle
Mass (kg)
RCS (m²)

Purposes: comms

External: N2YO · Heavens-Above · Gunter

§ Orbital elements

Epoch: 2026-05-24T21:58:10.453728Z

Period
94.27 min
Inclination
43.0014°
Eccentricity
0.0001334
Mean motion
15.27596744 rev/d
Perigee alt
482.1 km
Apogee alt
483.9 km
Semi-major
6,861.1 km
B*
4.2844e-4
RAAN
218.1128°
Arg perigee
275.1626°
Mean anomaly
84.9074°
Rev number
7,821

§ Raw data

STARLINK-327321 62488U 25003B   26144.91539877  .00011552  00000+0  42844-3 0  99922 62488  43.0014 218.1128 0001334 275.1626  84.9074 15.27596744 78215

JSON: /api/v1/satellites/62488 · /tle

For live sub-satellite position, see the globe view (requires WebGL).

§ Visibility from observer

Set your observer location to see the next 7 days of passes ≥ 10°. The values pass through the URL so the page stays shareable.

No JS? Fill the form by hand. The geolocation button needs JavaScript.